EW1732 Weather Reports


Display with metric or nautical units.
time (UTC)temp
F
wind
direction
speed
MPH
gust
MPH
rain 1hr
in
rain 24hr
in
rain mn
in
humidity
%
barometer
mb
20260505065942 52 322 0.0 0.0 0.00 0.00 0.00 79 1009.9
20260505064913 52 322 0.0 0.0 0.00 0.00 0.00 78 1010.1
20260505063929 52 320 0.0 0.0 0.00 0.00 0.00 77 1010.1
20260505062951 53 221 0.0 0.0 0.00 0.00 0.00 77 1010.2
20260505061921 53 221 0.0 0.0 0.00 0.00 0.00 75 1010.1
20260505060920 54 221 0.0 0.0 0.00 0.00 0.00 73 1010.2
20260505055858 55 221 0.0 0.0 0.00 0.00 0.00 72 1010.2
20260505054912 56 221 0.0 0.0 0.00 0.00 0.00 69 1010.2
20260505053844 57 221 0.0 0.0 0.00 0.00 0.00 68 1010.2
20260505051730 58 319 0.0 0.0 0.00 0.00 0.00 65 1010.5
20260505050702 58 195 0.0 0.0 0.00 0.00 0.00 65 1010.4
20260505041446 58 150 0.0 0.0 0.00 0.00 0.00 65 1010.8
20260505040432 58 231 0.0 1.0 0.00 0.00 0.00 65 1010.9
20260505035408 58 136 0.0 1.0 0.00 0.00 0.00 66 1010.9
20260505032048 57 270 0.0 0.0 0.00 0.00 0.00 68 1010.8
20260505031106 57 240 0.0 0.0 0.00 0.00 0.00 69 1010.8
20260505030051 57 133 0.0 0.0 0.00 0.00 0.00 71 1010.8
20260505025040 57 133 0.0 0.0 0.00 0.00 0.00 71 1010.8
20260505024104 57 175 0.0 0.0 0.00 0.00 0.00 71 1010.9
20260505023102 57 224 0.0 0.0 0.00 0.00 0.00 71 1010.9
20260505022034 57 230 0.0 0.0 0.00 0.00 0.00 71 1010.9
20260505021018 57 207 0.0 0.0 0.00 0.00 0.00 71 1011.0
20260505020041 57 217 0.0 0.0 0.00 0.00 0.00 71 1011.1
20260505015022 57 167 0.0 0.0 0.00 0.00 0.00 70 1010.9
20260505014025 57 146 0.0 0.0 0.00 0.00 0.00 70 1010.9
20260505010722 58 229 0.0 0.0 0.00 0.00 0.00 67 1010.5
20260505005707 58 245 0.0 0.0 0.00 0.00 0.00 66 1010.4
20260505004708 58 149 0.0 0.0 0.00 0.00 0.00 65 1010.3
20260505002553 60 142 0.0 0.0 0.00 0.00 0.00 61 1009.9
20260505001523 60 162 0.0 1.0 0.00 0.00 0.00 60 1009.7
20260505000506 61 233 0.0 0.0 0.00 0.00 0.00 59 1009.5
20260504235504 61 179 0.0 1.0 0.00 0.00 0.00 58 1009.4
20260504234440 62 153 0.0 0.0 0.00 0.00 0.00 56 1009.2
20260504233428 62 222 0.0 5.0 0.00 0.00 0.00 55 1009.0
20260504231305 64 144 0.0 2.0 0.00 0.00 0.00 53 1008.8
20260504225136 66 127 0.0 1.0 0.00 0.00 0.00 51 1008.6
20260504221856 68 93 1.0 5.0 0.00 0.00 0.00 47 1008.5
20260504220920 69 156 0.0 7.0 0.00 0.00 0.00 46 1008.6
20260504214752 71 162 0.0 4.0 0.00 0.00 0.00 42 1008.8
20260504212631 73 103 0.0 1.0 0.00 0.00 0.00 37 1008.8
20260504210423 72 117 0.0 6.0 0.00 0.00 0.00 37 1008.8
20260504205441 72 129 1.0 4.0 0.00 0.00 0.00 36 1008.8
20260504204423 73 172 0.0 1.0 0.00 0.00 0.00 37 1008.8
20260504203411 72 220 1.0 4.0 0.00 0.00 0.00 36 1008.9
20260504200117 72 44 1.0 7.0 0.00 0.00 0.00 35 1009.2
20260504195111 72 161 2.0 7.0 0.00 0.00 0.00 35 1009.3
20260504194131 72 168 1.0 4.0 0.00 0.00 0.00 35 1009.2
20260504190848 72 110 1.0 7.0 0.00 0.00 0.00 34 1009.6
20260504185822 72 143 2.0 5.0 0.00 0.00 0.00 34 1009.7
20260504184804 72 122 1.0 6.0 0.00 0.00 0.00 37 1009.8
20260504183746 71 149 2.0 6.0 0.00 0.00 0.00 36 1009.7
20260504181538 71 109 1.0 7.0 0.00 0.00 0.00 36 1010.0
20260504175405 71 141 1.0 5.0 0.00 0.00 0.00 36 1010.2
20260504174411 70 228 1.0 5.0 0.00 0.00 0.00 38 1010.5
20260504173336 70 113 2.0 7.0 0.00 0.00 0.00 38 1010.5
20260504150937 64 70 2.0 5.0 0.00 0.00 0.00 40 1012.2
20260504140808 60 172 1.0 4.0 0.00 0.00 0.00 43 1012.7
20260504110344 46 284 0.0 0.0 0.00 0.00 0.00 70 1013.4
20260504100255 42 300 0.0 0.0 0.00 0.00 0.00 73 1013.3
20260504090129 41 262 0.0 0.0 0.00 0.00 0.00 74 1013.2
20260504081131 41 262 0.0 0.0 0.00 0.00 0.00 72 1012.9
20260504080145 41 262 0.0 0.0 0.00 0.00 0.00 72 1012.9